Terminal Aerodrome Forecast
Issued by NWS Des Moines, IA

Home | Current Version | Previous Version | Text Only | Print | Product List | Glossary On
Versions: 1 2 3 4 5 6 7 8 9 10 11 12 13 14 15 16 17 18 19 20 21 22 23 24 25 26 27
000
FTUS43 KDMX 130534
TAFALO
TAF
KALO 130534Z 1306/1406 20008KT P6SM BKN080
     FM131300 24009KT P6SM BKN150
     FM131600 29015G23KT P6SM -RASN OVC024
     FM131700 30017G27KT P6SM VCSH OVC028
     FM131800 32023G39KT P6SM BKN028
     FM132200 32022G36KT P6SM BKN030
     FM140500 35009KT P6SM BKN028=

USA.gov is the U.S. government's official web portal to all federal, state and local government web resources and services.